NOAA-15
1 25338U 98030A   06116.61093814  .00000060  00000-0  43995-4 0 04903
2 25338 098.5171 120.4556 0010621 159.0547 201.1058 14.24574383413374
RESURS
1 25394U 98043A   06117.69738028 -.00000022  00000-0  87593-5 0  3531
2 25394 098.4946 182.2826 0001464 001.7034 358.4150 14.24097947405219
FENGYUN1
1 25730U 99025A   06116.88225044  .00000229  00000-0  14832-3 0 07148
2 25730 098.6244 111.3742 0013692 289.0947 070.8743 14.11811632358778
OKEAN-0
1 25860U 99039A   06116.66484480  .00000093  00000-0  21587-4 0 07329
2 25860 097.7363 133.3959 0000657 050.5366 309.5904 14.73355518364166
NOAA-16
1 26536U 00055A   06116.64215815 -.00000021  00000-0  13355-4 0 08565
2 26536 099.0622 082.6653 0009732 265.9362 094.0682 14.12334368288301
NOAA-17
1 27453U 02032A   06116.87007881  .00000244  00000-0  12555-3 0 08799
2 27453 098.6236 190.0738 0011280 220.4662 139.5671 14.23771554199470
NOAA-18
1 28654U 05018A   06117.50423060 -.00000148  00000-0 -58420-4 0  4571
2 28654 098.7850 061.8720 0014762 008.8201 351.3226 14.10950841 48239
HUBBLE
1 20580U 90037B   06116.86441210  .00000664  00000-0  39145-4 0  5969
2 20580 028.4682 024.4516 0003325 358.7280 001.3311 15.00016434677389
UARS
1 21701U 91063B   06116.82659001  .00008531  00000-0  15967-3 0 07542
2 21701 056.9755 313.7579 0111451 110.4026 250.8948 15.43100402801377
PO-34
1 25520U 98064B   06117.81310851  .00000869  00000-0  33473-4 0  4513
2 25520 028.4591 008.1390 0005612 054.3067 305.8055 15.16683850414395
ISS
1 25544U 98067A   06117.95241549  .00008477  00000-0  58165-4 0  8189
2 25544 051.6381 086.0584 0008810 157.2913 320.3552 15.75680958425243
OO-38
1 26063U 00004C   06117.42139202  .00000090  00000-0  51383-4 0  6034
2 26063 100.1881 039.3250 0036508 250.2391 109.4851 14.35762588327384
NO-45
1 26932U 01043D   06116.52147295 -.00000150  00000-0 -26420-4 0 03001
2 26932 067.0554 140.4537 0008811 273.1019 086.9095 14.29521709238589
UWE-1
1 28892U 05043C   06116.77349387  .00000265  00000-0  65784-4 0  4344
2 28892 098.1689 015.8086 0016968 335.0391 024.9999 14.59338384 26473
CO-58
1 28895U 05043F   06116.76656076  .00000152  00000-0  41925-4 0  4179
2 28895 098.1712 015.8639 0017508 335.0364 024.9987 14.59392793 26356
NCUBE2
1 28897U 05043H   06117.16060795  .00000244  00000-0  61005-4 0   600
2 28897 098.1682 016.2451 0017327 336.2806 023.7627 14.59547253 18682
